Location: Ku?niki
(51.4449°N, 17.8974°E)
Time: 13:36:50
(UTC+00:00)

POLYITAN 1 - Pass Details

Date: 02 July 2022
Orbit: 587 x 604 km, 98.0° (Epoch: 07 August)

Event Time Altitude Azimuth Distance (km) Brightness Sun altitude
Rises 01:25:39 0° 9° (N) 2,859 ? -8.3°
Reaches altitude 10° 01:27:55 10° 2° (N) 1,955 ? -8.1°
Maximum altitude 01:31:54 41° 292° (WNW) 881 ? -7.7°
Drops below altitude 10° 01:35:52 10° 223° (SW) 1,949 ? -7.3°
Enters shadow 01:36:02 - 222° (SW) 2,013 ? -7.3°
